• In Austria
  • List of Countries
  • For 7 days
  • Water Temperature
  • Satellite Maps
  • Weather Map
  • News
  • Weather Widgets
  • user-avatar
    Login

    Hourly Weather Bansko

    Today, 20 April, Friday

    Time Temperature Precipitation Wind Pressure Humidity
    00:00 +13°C° 0 mm 2 mps 723 mmHg 87%
    01:00 +13°C° 0 mm 2 mps 723 mmHg 87%
    02:00 +13°C° 0 mm 2 mps 723 mmHg 88%
    03:00 +12°C° 0 mm 2 mps 723 mmHg 88%
    04:00 +12°C° 0 mm 2 mps 722 mmHg 88%
    05:00 +12°C° 0 mm 2 mps 722 mmHg 89%
    06:00 +13°C° 0 mm 2 mps 722 mmHg 83%
    07:00 +15°C° 0 mm 2 mps 722 mmHg 78%
    08:00 +16°C° 0 mm 3 mps 722 mmHg 72%
    09:00 +17°C° 0.1 mm 3 mps 722 mmHg 67%
    10:00 +18°C° 0.1 mm 3 mps 723 mmHg 61%
    11:00 +19°C° 0.1 mm 4 mps 723 mmHg 55%
    12:00 +19°C° 0.1 mm 4 mps 723 mmHg 53%
    13:00 +20°C° 0.1 mm 4 mps 723 mmHg 51%
    14:00 +20°C° 0.1 mm 4 mps 723 mmHg 48%
    15:00 +19°C° 0.2 mm 4 mps 723 mmHg 51%
    16:00 +19°C° 0.2 mm 3 mps 723 mmHg 54%
    17:00 +18°C° 0.2 mm 3 mps 723 mmHg 56%
    18:00 +16°C° 0.2 mm 3 mps 723 mmHg 63%
    19:00 +15°C° 0.2 mm 2 mps 723 mmHg 70%
    20:00 +13°C° 0.2 mm 2 mps 724 mmHg 77%
    21:00 +12°C° 0 mm 2 mps 724 mmHg 80%
    22:00 +11°C° 0 mm 1 mps 725 mmHg 83%
    23:00 +11°C° 0 mm 1 mps 725 mmHg 85%

    Tomorrow, 21 April, Saturday

    Time Temperature Precipitation Wind Pressure Humidity
    00:00 +10°C° 0 mm 1 mps 725 mmHg 86%
    01:00 +10°C° 0 mm 1 mps 725 mmHg 86%
    02:00 +9°C° 0 mm 1 mps 725 mmHg 86%
    03:00 +9°C° 0 mm 1 mps 725 mmHg 86%
    04:00 +9°C° 0 mm 1 mps 725 mmHg 85%
    05:00 +9°C° 0 mm 1 mps 725 mmHg 85%
    06:00 +10°C° 0 mm 1 mps 725 mmHg 78%
    07:00 +12°C° 0 mm 1 mps 725 mmHg 70%
    08:00 +13°C° 0 mm 1 mps 725 mmHg 63%
    09:00 +15°C° 0 mm 1 mps 725 mmHg 56%
    10:00 +18°C° 0 mm 1 mps 725 mmHg 49%
    11:00 +19°C° 0 mm 2 mps 725 mmHg 42%
    12:00 +19°C° 0 mm 2 mps 725 mmHg 40%
    13:00 +20°C° 0 mm 2 mps 725 mmHg 37%
    14:00 +21°C° 0 mm 2 mps 724 mmHg 35%
    15:00 +21°C° 0 mm 2 mps 724 mmHg 36%
    16:00 +21°C° 0 mm 2 mps 723 mmHg 37%
    17:00 +20°C° 0 mm 2 mps 723 mmHg 39%
    18:00 +18°C° 0 mm 2 mps 723 mmHg 46%
    19:00 +16°C° 0 mm 1 mps 723 mmHg 53%
    20:00 +14°C° 0 mm 1 mps 723 mmHg 60%
    21:00 +13°C° 0 mm 1 mps 723 mmHg 62%
    22:00 +13°C° 0 mm 1 mps 723 mmHg 65%
    23:00 +11°C° 0 mm 0 mps 723 mmHg 67%

    Day after tomorrow, 22 April, Sunday

    Time Temperature Precipitation Wind Pressure Humidity
    00:00 +11°C° 0 mm 0 mps 723 mmHg 68%
    01:00 +10°C° 0 mm 0 mps 723 mmHg 69%
    02:00 +10°C° 0 mm 0 mps 723 mmHg 70%
    03:00 +11°C° 0 mm 1 mps 722 mmHg 69%
    04:00 +11°C° 0 mm 1 mps 722 mmHg 68%
    05:00 +10°C° 0 mm 1 mps 722 mmHg 67%
    06:00 +13°C° 0 mm 1 mps 722 mmHg 61%
    07:00 +15°C° 0 mm 1 mps 722 mmHg 55%
    08:00 +18°C° 0 mm 1 mps 722 mmHg 48%
    09:00 +20°C° 0 mm 1 mps 723 mmHg 43%
    10:00 +22°C° 0 mm 1 mps 723 mmHg 38%
    11:00 +24°C° 0 mm 1 mps 723 mmHg 32%
    12:00 +25°C° 0 mm 1 mps 722 mmHg 31%
    13:00 +26°C° 0 mm 2 mps 722 mmHg 30%
    14:00 +26°C° 0 mm 2 mps 722 mmHg 28%
    15:00 +26°C° 0 mm 2 mps 721 mmHg 30%
    16:00 +26°C° 0 mm 2 mps 721 mmHg 31%
    17:00 +25°C° 0 mm 2 mps 721 mmHg 32%
    18:00 +23°C° 0 mm 1 mps 721 mmHg 39%
    19:00 +20°C° 0 mm 1 mps 721 mmHg 46%
    20:00 +18°C° 0 mm 1 mps 721 mmHg 53%
    21:00 +16°C° 0 mm 1 mps 721 mmHg 54%
    22:00 +16°C° 0 mm 1 mps 721 mmHg 56%
    23:00 +15°C° 0 mm 1 mps 721 mmHg 57%

    23 April, Monday

    Time Temperature Precipitation Wind Pressure Humidity
    00:00 +15°C° 0 mm 1 mps 721 mmHg 58%
    01:00 +14°C° 0 mm 1 mps 721 mmHg 58%
    02:00 +14°C° 0 mm 1 mps 721 mmHg 58%
    03:00 +14°C° 0 mm 1 mps 721 mmHg 58%
    04:00 +13°C° 0 mm 1 mps 720 mmHg 57%
    05:00 +13°C° 0 mm 1 mps 720 mmHg 56%
    06:00 +15°C° 0 mm 1 mps 720 mmHg 53%
    07:00 +18°C° 0 mm 1 mps 721 mmHg 50%
    08:00 +20°C° 0 mm 1 mps 721 mmHg 47%
    09:00 +22°C° 0 mm 1 mps 721 mmHg 42%
    10:00 +24°C° 0 mm 1 mps 721 mmHg 37%
    11:00 +26°C° 0 mm 2 mps 721 mmHg 33%
    12:00 +26°C° 0 mm 2 mps 721 mmHg 32%
    13:00 +27°C° 0 mm 2 mps 721 mmHg 31%
    14:00 +28°C° 0 mm 2 mps 720 mmHg 30%
    15:00 +27°C° 0 mm 2 mps 720 mmHg 32%
    16:00 +27°C° 0 mm 2 mps 720 mmHg 33%
    17:00 +27°C° 0 mm 1 mps 719 mmHg 34%
    18:00 +24°C° 0 mm 1 mps 719 mmHg 40%
    19:00 +22°C° 0 mm 1 mps 719 mmHg 47%
    20:00 +17°C° 0 mm 0 mps 719 mmHg 54%
    21:00 +17°C° 0 mm 0 mps 719 mmHg 55%
    22:00 +16°C° 0 mm 0 mps 719 mmHg 57%
    23:00 +16°C° 0 mm 1 mps 720 mmHg 58%

    24 April, Tuesday

    Time Temperature Precipitation Wind Pressure Humidity
    00:00 +16°C° 0 mm 1 mps 719 mmHg 58%
    01:00 +16°C° 0 mm 1 mps 719 mmHg 58%
    02:00 +15°C° 0 mm 1 mps 719 mmHg 59%
    03:00 +15°C° 0 mm 1 mps 719 mmHg 58%
    04:00 +15°C° 0 mm 1 mps 719 mmHg 58%
    05:00 +15°C° 0 mm 1 mps 719 mmHg 58%
    06:00 +18°C° 0 mm 1 mps 719 mmHg 55%
    07:00 +20°C° 0 mm 1 mps 720 mmHg 51%
    08:00 +20°C° 0 mm 0 mps 720 mmHg 48%
    09:00 +23°C° 0 mm 1 mps 720 mmHg 44%
    10:00 +25°C° 0 mm 1 mps 721 mmHg 41%
    11:00 +26°C° 0 mm 2 mps 721 mmHg 38%
    12:00 +26°C° 0.1 mm 2 mps 720 mmHg 38%
    13:00 +27°C° 0.1 mm 2 mps 720 mmHg 38%
    14:00 +27°C° 0.1 mm 2 mps 720 mmHg 38%
    15:00 +26°C° 0.4 mm 3 mps 720 mmHg 43%
    16:00 +25°C° 0.4 mm 3 mps 720 mmHg 48%
    17:00 +25°C° 0.4 mm 3 mps 720 mmHg 52%
    18:00 +22°C° 0.8 mm 3 mps 720 mmHg 60%
    19:00 +20°C° 0.8 mm 2 mps 720 mmHg 68%
    20:00 +18°C° 0.8 mm 2 mps 720 mmHg 76%
    21:00 +17°C° 0.1 mm 2 mps 720 mmHg 79%
    22:00 +16°C° 0.1 mm 2 mps 721 mmHg 81%
    23:00 +16°C° 0.1 mm 2 mps 721 mmHg 84%

    25 April, Wednesday

    Time Temperature Precipitation Wind Pressure Humidity
    00:00 +15°C° 0 mm 2 mps 721 mmHg 85%
    01:00 +14°C° 0 mm 2 mps 721 mmHg 86%
    02:00 +14°C° 0 mm 2 mps 721 mmHg 87%
    03:00 +14°C° 0 mm 2 mps 721 mmHg 86%
    04:00 +13°C° 0 mm 1 mps 722 mmHg 86%
    05:00 +13°C° 0 mm 1 mps 722 mmHg 85%
    06:00 +14°C° 0 mm 1 mps 722 mmHg 78%
    07:00 +16°C° 0 mm 1 mps 722 mmHg 70%
    08:00 +19°C° 0 mm 1 mps 723 mmHg 63%
    09:00 +21°C° 0 mm 1 mps 723 mmHg 55%
    10:00 +22°C° 0 mm 1 mps 723 mmHg 48%
    11:00 +24°C° 0 mm 1 mps 724 mmHg 40%
    12:00 +25°C° 0 mm 1 mps 723 mmHg 38%
    13:00 +26°C° 0 mm 1 mps 723 mmHg 36%
    14:00 +26°C° 0 mm 1 mps 723 mmHg 35%
    15:00 +26°C° 0 mm 1 mps 723 mmHg 36%
    16:00 +26°C° 0 mm 1 mps 722 mmHg 37%
    17:00 +25°C° 0 mm 1 mps 722 mmHg 38%
    18:00 +23°C° 0 mm 1 mps 722 mmHg 45%
    19:00 +21°C° 0 mm 1 mps 722 mmHg 52%
    20:00 +19°C° 0 mm 1 mps 722 mmHg 59%
    21:00 +18°C° 0 mm 1 mps 722 mmHg 63%
    22:00 +16°C° 0 mm 1 mps 722 mmHg 67%
    23:00 +16°C° 0 mm 1 mps 722 mmHg 70%
    Show more